C/2018 N2 ( ASASSN )

Japanese version
Home page
Updated on May 20, 2019

---------------------------------------------------------------------

* Profile

Discovery Date July 7, 2018
Magnitude 16.4 mag
Discoverer All-Sky Automated Survey for Supernovae (ASASSN) program

* Pictures

* Orbital Elements

Epoch 2019 Nov. 13.0 TT = JDT 2458800.5
T 2019 Nov. 10.95750 TT                                 MPCW
q   3.1246097            (2000.0)            P               Q
z  -0.0000670      Peri.   24.39610     +0.78558005     -0.45745189
 +/-0.0000034      Node    25.25955     +0.27012091     -0.35227652
e   1.0002093      Incl.   77.53164     +0.55668544     +0.81647965
From 395 observations 2018 July 11-2019 Feb. 16, mean residual 0".4.

* Finding Charts

* Magnitudes Graph

        m1 = 4.0 + 5 log d + 10.0 log r

---------------------------------------------------------------------

The orbital elements are published on M.P.E.C. 2019-J142.
The charts are made with StellaNavigator Ver.10 (AstroArts).
The magnitudes graphs are made with Comet for Windows.

---------------------------------------------------------------------

Copyright(C) Seiichi Yoshida (comet@aerith.net). All rights reserved.